Probability
0 0 0 0 0 0 0 0 0 0 0 0 0 0 0 0 0 0 0 0 0 0 1 3 3 2 1 0 0 0 0 1 2 3 3 3 1 0 0 0 0 0 0 0
0 0 0 0 0 0 0 0 0 0 0 0 0 0 0 0 0 0 0 0 0 0 2 3 3 2 1 0 0 0 0 0 1 3 3 3 2 1 0 0 0 0 0 0
0 0 0 0 0 0 0 0 0 0 0 0 0 0 0 0 0 0 0 0 0 0 1 2 2 1 0 0 0 0 0 0 1 2 3 3 3 2 1 0 0 0 0 0
0 0 0 0 0 0 0 0 0 0 0 0 0 0 0 0 0 0 0 0 0 0 1 2 2 1 1 0 0 0 0 0 1 2 3 3 3 2 1 0 0 0 0 0
0 0 0 0 0 0 0 0 0 0 0 0 0 0 0 0 0 0 0 0 0 0 1 2 2 2 1 0 0 0 0 0 1 2 2 2 2 2 1 0 0 0 0 0
0 0 0 0 0 0 0 0 0 0 0 0 0 0 0 0 0 0 0 0 0 0 0 1 1 1 1 0 0 0 0 0 0 1 1 1 1 1 0 0 0 0 0 0
0 0 0 0 0 0 0 0 0 0 0 0 0 0 0 0 0 0 0 0 0 0 0 0 0 1 1 1 0 0 0 0 0 0 0 0 0 0 0 0 0 0 0 0
0 0 0 0 0 0 0 0 0 0 0 0 0 0 0 0 0 0 0 0 0 0 0 0 0 1 1 1 0 0 0 0 0 0 0 0 0 0 0 0 0 0 0 0
0 0 0 0 0 0 0 0 0 0 0 0 0 0 0 0 0 0 0 0 0 0 0 0 0 0 0 0 0 0 0 0 0 0 0 0 0 0 0 0 0 0 0 0
0 0 0 0 0 0 0 0 0 0 0 0 0 0 0 0 0 0 0 0 0 0 0 0 0 0 0 0 0 0 0 0 0 0 0 0 0 0 0 0 0 0 0 0
0 0 0 0 0 0 0 0 0 0 0 0 0 0 0 0 0 0 0 0 0 0 0 0 0 0 0 0 0 0 0 0 0 0 0 0 0 0 0 0 0 0 0 0
0 0 0 0 0 0 0 0 0 0 0 0 0 0 0 0 0 0 0 0 0 0 0 0 0 0 0 0 0 0 0 0 0 0 0 0 0 0 0 0 0 0 0 0
0 0 0 0 0 0 0 0 0 0 0 0 0 0 0 0 0 0 0 0 0 0 0 0 0 0 0 0 0 0 0 0 0 0 0 0 0 0 0 0 0 0 0 0
0 0 0 0 0 0 0 0 0 0 0 0 0 0 0 0 0 0 0 0 0 0 0 0 0 0 0 0 0 0 0 0 0 0 0 0 0 0 0 0 0 0 0 0
0 0 0 0 0 0 0 0 0 0 0 0 0 0 0 0 0 0 0 0 0 0 0 0 0 0 0 0 0 0 0 0 0 0 0 0 0 0 0 0 0 0 0 0
0 0 0 0 0 0 0 0 0 0 0 0 0 0 0 0 0 0 0 0 0 0 0 0 0 0 0 0 0 0 0 0 0 0 0 0 0 0 0 0 0 0 0 0
0 0 0 0 0 0 0 0 0 0 0 0 0 0 0 0 0 0 0 0 0 0 0 0 0 0 0 0 0 0 0 0 0 0 0 0 0 0 0 0 0 0 0 0
0 0 0 0 0 0 0 0 0 0 0 0 0 0 0 0 0 0 0 0 0 0 0 0 0 0 0 0 0 0 0 0 0 0 0 0 0 0 0 0 0 0 0 0
0 0 0 0 0 0 0 0 0 0 0 0 0 0 0 0 0 0 0 0 0 0 0 0 0 0 0 0 0 0 0 0 0 0 0 0 0 0 0 0 0 0 0 0
0 0 0 0 0 0 0 0 0 0 0 0 0 0 0 0 0 0 0 0 0 0 0 0 0 0 0 0 0 0 0 0 0 0 0 0 0 0 0 0 0 0 0 0
0 0 0 0 0 0 0 0 0 0 0 0 0 0 0 0 0 0 0 0 0 0 0 0 0 0 0 0 0 0 0 0 0 0 0 0 0 0 0 0 0 0 0 0
0 0 0 0 0 0 0 0 0 0 0 0 0 0 0 0 0 0 0 0 0 0 0 0 0 0 0 0 0 0 0 0 0 0 0 0 0 0 0 0 0 0 0 0
0 0 0 0 0 0 0 0 0 0 0 0 0 0 0 0 0 0 0 0 0 0 0 0 0 0 0 0 0 0 0 0 0 0 0 0 0 0 0 0 0 0 0 0
0 0 0 0 0 0 0 0 0 0 0 0 0 0 0 0 0 0 0 0 0 0 0 0 0 0 0 0 0 0 0 0 0 0 0 0 0 0 0 0 0 0 0 0
0 0 0 0 0 0 0 0 0 0 0 0 0 0 0 0 0 0 0 0 0 0 0 0 0 0 0 0 0 0 0 0 0 0 0 0 0 0 0 0 0 0 0 0
0 0 0 0 0 0 0 0 0 0 0 0 0 0 0 0 0 0 0 0 0 0 0 0 0 0 0 0 0 0 0 0 0 0 0 0 0 0 0 0 0 0 0 0
Wind_Speed
1 2 3 3 4 4 4 6 7 5 3 5 9 11 9 6 7 8 8 7 6 6 5 4 4 4 4 4 4 4 5 5 4 3 3 2 2 2 2 1 1 1 1 1
2 3 4 2 2 3 5 6 6 4 2 5 8 12 9 7 7 7 7 7 6 5 4 4 4 4 4 4 5 4 4 5 4 3 2 2 2 1 1 1 1 1 1 1
3 1 1 4 4 4 6 7 6 5 5 4 8 9 6 4 4 4 5 6 5 5 5 4 4 4 4 4 4 4 4 4 5 4 3 3 2 2 2 2 1 1 2 1
2 2 1 3 4 5 6 4 5 5 5 3 4 7 5 4 4 4 4 4 4 4 4 4 4 4 4 4 3 4 4 4 4 4 4 5 3 3 3 2 2 2 2 2
2 2 3 4 3 4 2 1 3 4 4 5 5 7 5 3 5 4 3 3 3 3 3 3 3 3 3 3 3 3 4 3 3 4 4 5 4 3 2 2 2 2 2 2
2 1 3 2 2 2 1 1 1 2 3 6 6 7 6 3 4 3 2 2 2 2 2 2 2 2 2 2 3 3 3 3 3 3 4 4 4 4 4 3 3 2 2 2
2 2 1 1 1 2 2 2 2 3 4 5 2 6 7 2 2 3 3 3 2 2 2 2 1 1 2 2 3 4 4 4 4 4 4 4 5 5 5 4 3 3 2 3
3 3 2 2 3 3 4 4 3 4 4 3 3 7 4 1 2 3 3 3 2 2 1 1 2 2 2 2 2 3 4 3 4 4 4 4 4 3 3 4 3 3 3 3
4 3 0 1 2 3 3 4 2 2 3 6 6 5 6 4 4 3 3 2 2 2 1 1 2 2 2 2 2 2 3 3 3 4 4 4 4 4 4 4 4 3 3 2
3 4 2 1 2 1 3 2 3 4 4 6 6 6 4 3 4 3 2 2 3 2 2 1 2 2 2 2 2 2 3 3 3 3 3 3 3 3 3 4 4 4 4 3
3 3 2 2 5 5 4 4 4 3 4 5 6 4 0 2 2 2 3 3 3 3 3 1 2 2 2 2 2 2 2 3 3 3 3 3 3 3 3 3 4 4 3 3
2 2 3 3 1 3 4 5 5 4 5 5 6 5 1 2 3 3 4 4 4 3 2 2 2 2 2 2 2 2 2 2 3 3 3 3 3 3 3 3 3 3 3 3
4 4 3 3 3 3 4 4 4 3 3 6 8 6 1 2 3 3 4 4 4 3 3 3 3 3 3 3 2 2 2 2 3 3 3 3 3 3 3 3 3 3 3 3
3 4 6 7 4 3 5 6 7 6 7 8 11 11 7 6 6 5 5 5 5 4 4 4 3 3 3 3 3 2 2 2 2 3 3 3 3 3 3 3 3 3 3 3
3 5 6 7 6 5 7 9 10 12 12 11 11 11 12 9 7 7 6 5 6 6 5 5 4 4 3 3 3 2 3 2 2 3 3 3 3 3 2 2 3 3 3 3
2 3 3 6 5 6 9 11 11 13 13 14 14 15 10 7 6 6 6 6 6 6 6 6 5 4 3 3 3 3 3 3 2 3 3 3 2 2 2 2 3 3 3 3
3 3 4 5 3 5 10 10 11 9 9 10 13 11 5 6 6 6 6 6 6 6 6 5 5 4 4 3 3 4 4 3 3 3 3 3 3 3 3 3 3 3 3 3
4 3 3 3 2 9 4 0 6 8 9 9 10 8 7 7 7 7 7 6 6 6 5 5 5 4 4 3 3 4 3 3 3 3 3 3 3 3 3 3 4 4 3 3
5 4 3 4 6 9 5 3 4 6 8 7 8 8 7 5 6 5 3 4 5 6 6 5 5 5 4 4 3 3 3 3 3 4 4 4 4 4 3 4 4 3 3 3
2 3 4 4 6 7 3 1 1 3 6 2 4 6 5 4 5 4 2 4 5 5 5 5 5 4 4 3 3 3 3 3 4 4 4 4 4 4 4 4 4 3 3 3
4 4 6 7 7 8 2 2 3 4 3 2 4 5 5 6 6 5 5 5 5 5 5 5 4 4 3 3 3 4 4 4 4 3 3 3 4 4 4 4 3 3 3 3
6 6 6 6 8 8 3 4 6 4 4 4 5 5 6 7 6 6 6 5 5 5 5 4 4 4 3 3 3 4 4 4 3 3 3 3 3 3 3 3 3 3 3 3
7 5 4 7 6 3 4 5 5 4 6 5 5 5 6 6 6 6 6 5 5 5 4 4 4 4 4 3 3 4 4 3 3 3 3 3 3 3 3 3 3 3 3 3
5 2 4 6 8 7 7 7 7 6 7 7 6 6 5 6 6 6 5 5 5 5 4 3 3 4 4 3 3 4 3 3 3 3 3 3 3 3 3 3 3 3 3 3
4 5 5 8 8 8 7 7 7 7 7 6 5 5 5 5 6 6 5 6 5 5 4 4 4 4 5 4 4 3 3 3 3 3 3 2 3 3 3 3 3 4 4 4
6 7 7 7 6 6 7 6 6 6 6 6 5 5 5 5 6 6 5 5 5 5 4 4 4 4 5 4 4 4 3 3 3 3 3 2 2 2 2 3 2 3 5 6
Wind_Direction
71 188 220 225 235 266 269 259 261 272 302 278 267 271 270 264 256 254 251 249 245 245 240 224 218 208 195 185 185 184 177 172 167 164 169 173 173 165 152 141 136 152 159 166
175 232 255 246 214 221 241 254 264 275 294 283 283 276 269 256 248 252 251 248 247 248 240 225 214 202 199 194 191 189 185 180 184 185 181 187 176 170 157 142 151 172 179 178
231 323 241 205 206 224 244 250 263 278 298 259 284 268 240 228 231 243 247 252 248 244 237 224 214 204 199 201 199 199 195 185 188 183 172 156 153 157 168 174 185 192 193 190
254 276 216 219 242 246 253 255 258 263 274 276 291 282 246 238 245 243 242 238 242 241 233 223 213 209 205 203 198 202 197 187 180 178 188 187 189 194 196 189 191 188 189 197
241 266 245 244 263 255 266 307 257 259 257 271 248 259 261 227 244 244 247 244 245 247 235 224 212 206 203 195 190 192 190 183 179 187 195 200 200 199 183 179 186 191 191 200
265 283 285 273 287 248 181 224 240 232 234 250 240 242 261 220 237 250 260 280 280 271 254 240 217 190 177 181 182 178 176 175 180 191 200 202 200 196 192 194 189 197 202 205
246 211 205 243 208 173 215 228 239 221 223 243 194 240 257 261 257 261 273 295 302 284 259 246 227 195 176 173 187 184 183 186 190 196 206 208 211 210 208 209 205 207 212 214
233 238 191 235 244 224 220 234 245 260 262 268 216 244 257 282 277 276 275 290 308 298 268 243 232 210 198 196 204 198 193 196 194 198 209 213 215 220 220 220 221 222 224 224
229 239 144 264 282 241 204 220 288 272 277 269 246 255 268 229 232 239 250 274 296 313 297 251 226 219 218 214 215 215 206 210 208 207 208 215 218 224 231 229 225 228 228 222
228 245 250 274 220 224 284 194 193 224 253 262 261 255 251 213 221 221 239 271 291 301 300 268 233 227 230 233 233 218 211 215 219 216 214 219 225 230 236 235 228 225 224 215
228 227 239 228 219 217 192 196 219 226 267 271 277 261 237 244 240 251 275 287 290 285 283 275 248 234 235 236 233 229 220 212 216 219 217 223 230 233 233 235 236 228 223 215
196 227 246 253 305 302 246 225 209 232 237 250 274 275 85 266 277 279 290 300 298 290 288 283 272 250 239 243 247 247 240 232 223 221 222 227 232 232 233 234 241 235 228 221
172 192 230 226 198 197 231 230 233 258 246 235 250 264 93 286 288 289 289 293 292 285 282 278 276 264 256 256 257 259 253 250 242 223 222 229 231 230 235 243 246 240 230 223
201 216 236 258 285 218 235 232 221 219 238 246 249 267 276 283 286 291 294 291 290 288 283 279 274 270 268 267 265 266 267 255 248 229 225 229 233 235 239 244 243 238 231 226
204 234 245 268 277 261 253 239 221 223 236 249 262 263 271 281 287 290 290 290 289 286 283 281 279 278 279 278 272 273 267 256 244 232 226 231 235 236 235 235 236 232 228 228
203 227 242 263 260 263 265 254 236 236 242 249 264 271 273 282 283 283 282 280 281 284 284 284 282 279 279 282 279 277 269 259 244 236 232 230 230 230 233 234 239 234 235 236
195 185 226 257 269 276 259 237 220 227 230 234 248 263 284 284 287 290 290 280 276 284 286 283 277 273 273 275 275 271 269 257 239 241 237 229 226 230 231 228 229 231 236 237
191 198 236 265 251 246 264 292 219 231 246 240 257 274 279 281 294 288 279 275 277 283 288 286 284 281 281 279 278 271 263 246 236 239 238 234 229 231 232 227 229 234 237 236
215 200 215 232 254 271 270 220 198 224 262 237 244 269 284 294 290 276 275 272 282 291 292 289 288 283 277 271 272 265 263 257 244 242 242 240 235 236 237 235 236 237 238 240
173 204 218 223 249 260 282 149 199 219 265 203 239 273 286 283 275 291 320 305 296 297 295 292 290 280 270 271 266 257 261 260 259 256 249 244 237 235 237 238 240 240 235 240
178 200 219 232 250 268 287 134 170 232 291 330 264 263 261 257 273 296 298 297 292 294 293 290 282 271 271 271 254 252 258 262 271 275 261 248 240 237 239 240 237 235 235 240
196 195 204 208 230 253 155 168 215 279 320 290 276 268 263 270 281 283 285 287 291 294 294 289 282 278 279 264 246 252 259 271 278 274 262 246 241 237 233 233 232 229 227 234
218 217 214 215 237 304 210 242 272 293 286 288 283 281 270 270 274 279 281 283 285 284 284 280 275 281 283 264 248 253 268 277 271 264 260 252 243 234 227 227 227 227 225 228
225 216 229 255 264 267 265 268 272 272 277 283 282 278 264 261 269 276 280 281 280 279 278 272 269 275 283 278 266 262 272 274 261 258 259 254 243 241 236 231 226 226 226 228
228 192 229 259 275 286 267 261 274 279 279 280 281 274 263 259 266 272 277 279 281 280 276 266 262 268 276 281 276 274 268 261 257 257 253 252 246 239 240 238 235 234 235 236
209 210 222 252 261 262 278 286 286 276 274 274 275 277 271 261 264 272 275 276 277 273 270 266 264 265 271 273 273 275 269 254 248 253 248 243 243 241 241 243 253 250 253 259